www.pogodaiklimat.ru

Погода и климат >> Архив погоды >> Россия >> Краснодарский край >> Сочи аэропорт (Адлер)


ПОГОДА в Сочи аэропорт (Адлере)

  • Прогноз погоды в Сочи аэропорт (Адлере)
  • Монитор погоды в Сочи аэропорт (Адлере)

АРХИВ ПОГОДЫ в Сочи аэропорт (Адлере)

Время (UTC), дата Ветер
(напр.,м/с)
 
Видим.   Явления Облачность Т
(С)
Тd
(С)
f
(%)
Тe
(С)
Тes
(С)
Комфортность P
(гПа)
Po
(гПа)
Тmin
(С)
Tmax
(С)
R
(мм)
R24
(мм)
S
(см)
06 10.07 С 1 20 км 1/1 1000 м
[Cu hum]
+25.6 +17.3 60 +30 +41 душно 1009.0 1007.3
09 10.07 Ю 3 20 км 3/1 1000 м
[Cu hum Ci fib]
+26.6 +18.1 60 +31 +45 душно 1008.2 1006.5
12 10.07 З 2 10 км 3/1 1000 м
[Cu med, cong Ci fib]
+26.7 +20.2 68 +33 +44 очень
душно
1007.4 1005.7
15 10.07 З 2 20 км 9/1 1000 м
[Cu med, cong Ac trans Ci fib]
+26.1 +19.0 65 +31 +32 очень
душно
1006.9 1005.2 +27.8
18 10.07 СЗ 4 4000 м 9/0
[Ac trans]
+24.7 +17.9 66 +29 +29 душно 1006.6 1004.9
21 10.07 штиль 0 4000 м 8/0
[Ac trans Ci fib]
+21.2 +17.8 81 +25 +25 комфорт 1006.1 1004.4
00 11.07 штиль 0 4000 м 6/0
[Ac trans]
+20.5 +17.7 84 +24 +24 комфорт 1005.1 1003.4
03 11.07 СВ 5 20 км в посл. час ливневой дождь 10/0
[Ac und]
+20.8 +17.9 83 +25 +25 комфорт 1003.8 1002.1 +20.0 0.4
06 11.07 СВ 2 20 км {ливн. осадки} 10/6 660 м
[Sc Ac und]
+24.8 +18.9 70 +30 +31 душно 1004.0 1002.3
09 11.07 З 2 10 км 10/4 750 м
[Cb cap Ac und]
+25.7 +19.7 69 +31 +35 очень
душно
1004.3 1002.6
12 11.07 СВ 2 10 км {ливн. осадки} 9/3 600 м
[Cb cap Ac trans]
+26.0 +18.5 63 +31 +35 очень
душно
1003.7 1002.0
15 11.07 СЗ 4 20 км 9/3 1500 м
[Cu med, cong Ac trans]
+26.0 +16.4 55 +29 +30 душно 1003.2 1001.5 +27.7 0.0
18 11.07 СЗ 3 4000 м 8/0
[Ac trans]
+24.2 +18.9 72 +29 +29 душно 1002.5 1000.8
21 11.07 штиль 0 4000 м 9/9 1200 м
[Sc]
+22.4 +19.1 82 +28 +28 душно 1002.5 1000.8
00 12.07 С 1 4000 м слаб. ливневой дождь 10/10 1200 м
[Cb cap]
+21.2 +19.8 92 +26 +26 душно 1001.7 1000.0
03 12.07 В 4 10 км в посл. час ливневой дождь 9/4 1000 м
[Cb cap Ac trans]
+19.8 +18.4 92 +23 +23 комфорт 1002.7 1001.0 +19.4 18
06 12.07 З 3 10 км {ливн. осадки} 9/6 900 м
[Cb cap Ac trans]
+22.4 +19.1 82 +28 +30 душно 1005.1 1003.4
09 12.07 З 6 10 км 6/1 1500 м
[Sc Ac trans]
+24.4 +16.4 61 +28 +32 душно 1006.8 1005.1
12 12.07 З 4 10 км 6/1 1500 м
[Sc Ac trans Ci fib]
+24.1 +16.1 61 +27 +33 жарко 1007.7 1006.0
15 12.07 З 4 10 км 9/1 1500 м
[Sc Ac trans Ci fib]
+23.9 +16.6 64 +27 +28 жарко 1008.6 1006.9 +26.4
18 12.07 С 2 4000 м 9/1 600 м
[Sc Ac trans]
+22.1 +17.0 73 +27 +27 душно 1009.2 1007.5
21 12.07 С 1 4000 м 9/1 1000 м
[Sc Ac trans]
+20.2 +17.3 83 +24 +24 комфорт 1009.5 1007.7
00 13.07 СЗ 1 4000 м 10/1 1000 м
[Cb cap Ac und]
+20.2 +17.1 82 +24 +24 комфорт 1008.8 1007.0
03 13.07 С 1 20 км {ливн. осадки} 9/1 1500 м
[Cu med, cong Ac und]
+19.8 +17.2 85 +23 +24 комфорт 1008.7 1006.9 +19.5 0.0
06 13.07 З 3 20 км {ливн. осадки} 9/3 600 м
[Cb cap Ac trans]
+22.7 +14.6 60 +26 +29 жарко 1010.1 1008.4
09 13.07 ЮЗ 3 20 км 6/3 1000 м
[Cb cap Ac trans]
+24.3 +15.3 57 +27 +35 жарко 1010.9 1009.2
12 13.07 ЮЗ 3 20 км 8/4 1000 м
[Cu med, cong Ac trans]
+25.0 +15.9 57 +28 +32 жарко 1011.4 1009.7
15 13.07 З 3 20 км 8/3 1000 м
[Cu med, cong Ci fib]
+24.4 +15.5 58 +27 +29 жарко 1011.3 1009.6 +25.9
18 13.07 С 1 4000 м 9/5 1110 м
[Cu Sc Ci fib]
+21.8 +15.1 66 +25 +25 комфорт 1011.8 1010.1
21 13.07 СВ 2 4000 м 9/1 1000 м
[Sc Ci fib]
+18.2 +15.1 82 +19 +19 1011.5 1009.7
00 14.07 СЗ 1 4000 м 10/0
[Ci fib]
+17.0 +14.4 85 +18 +18 1010.8 1009.0
03 14.07 СЗ 1 20 км 10/0
[Ci fib]
+16.6 +13.7 83 +17 +18 1010.3 1008.5 +16.0
06 14.07 З 1 20 км ясно +22.8 +13.1 54 +26 +38 жарко 1010.6 1008.9
09 14.07 З 4 20 км 1/1 1000 м
[Cu hum]
+24.2 +12.8 49 +26 +38 жарко 1009.8 1008.1
12 14.07 З 4 20 км 6/1 1500 м
[Cu med, cong Ci ing]
+25.0 +12.5 46 +27 +34 жарко 1009.0 1007.3
15 14.07 З 4 20 км 10/0
[Ac trans Ci fib]
+23.5 +14.0 55 +26 +27 жарко 1007.7 1006.0 +25.7
18 14.07 С 2 4000 м 9/0
[Ac trans Ci fib]
+20.8 +14.7 68 +24 +24 комфорт 1006.8 1005.0
21 14.07 штиль 0 4000 м 3/0
[Ac trans]
+17.9 +14.2 79 +18 +18 1005.5 1003.8
00 15.07 С 1 4000 м 3/0
[Ac trans]
+17.0 +13.4 79 +18 +18 1003.5 1001.8
03 15.07 СВ 2 20 км 9/0
[Ac trans Ci fib]
+19.0 +11.8 63 +20 +21 1001.8 1000.1 +16.5
06 15.07 З 3 20 км 10/3 1500 м
[Cb cap Ac As]
+22.0 +12.1 53 +24 +26 комфорт 1002.6 1000.9
09 15.07 З 3 20 км слаб. ливневой дождь 10/10 1500 м
[Cb cap]
+22.0 +18.1 79 +27 +27 душно 1001.8 1000.1
12 15.07 СВ 4 20 км слаб. ливневой дождь 10/10 1200 м
[Cb cap]
+20.3 +17.9 86 +24 +24 комфорт 1004.0 1002.3
15 15.07 СВ 2 20 км в посл. час ливневой дождь 8/3 1500 м
[Cb cap Ac trans]
+22.6 +18.8 79 +28 +29 душно 1004.8 1003.1 +23.0 4
18 15.07 СВ 3 4000 м {ливн. осадки} 9/5 720 м
[Sc Ac trans]
+20.9 +18.4 86 +26 +26 душно 1006.6 1004.9
21 15.07 Ю 3 4000 м гроза, ливневой дождь 10/10 750 м
[Cb cap]
+20.0 +18.9 93 +24 +24 комфорт 1006.9 1005.1
00 16.07 В 4
{10}
4000 м ливневой дождь {гроза} 10/10 750 м
[Cb cap]
+19.8 +18.2 90 +23 +23 комфорт 1006.9 1005.1
03 16.07 ЮВ 3
{10}
4000 м ливневой дождь {гроза} 10/10 1020 м
[Cb cap]
+19.0 +17.9 93 +21 +21 комфорт 1007.7 1005.9 +18.5 46
06 16.07 В 3 2000 м ливневой дождь {гроза} 9/9 210 м
[Cb cap]
+19.4 +18.1 92 +22 +23 комфорт 1007.4 1005.7
09 16.07 ЮВ 4 10 км в посл. час ливневой дождь 9/9 840 м
[Cb cap]
+23.4 +19.8 80 +30 +32 очень
душно
1009.3 1007.6
12 16.07 В 3 10 км в посл. час ливневой дождь 8/8 870 м
[Cb cap]
+24.4 +18.7 71 +29 +31 душно 1009.8 1008.1
15 16.07 ЮВ 1 10 км 8/5 1170 м
[Cb cap Ac trans]
+23.2 +17.4 70 +29 +29 душно 1010.0 1008.3 +25.1 27
18 16.07 штиль 0 4000 м ясно +20.0 +17.4 85 +23 +23 комфорт 1011.2 1009.4
21 16.07 СВ 4 4000 м 3/3 1500 м
[Sc]
+18.2 +16.5 90 +18 +18 1010.5 1008.7
00 17.07 СВ 4 4000 м ясно +17.5 +15.1 86 +17 +17 1009.6 1007.8
03 17.07 СВ 3 20 км 3/0
[Ci fib]
+18.1 +13.9 76 +18 +19 1008.8 1007.0 +17.0

 

Местоположение метеостанции Сочи аэропорт (Адлер) (Краснодарский край, Россия): широта 43.43 долгота 39.90 высота над уровнем моря 15 м.

В архиве по умолчанию представлена погода в Сочи аэропорт (Адлере) за последнюю неделю. Архивные данные за месяц целиком и за предыдущие месяцы, начиная с января 2011 года, Вы можете получить, выбрав интересующий диапазон дат из раскрывающегося списка и нажав кнопку "Ввод!".


*Определитесь, кто Вы:
робот инопланетянин человек

Внимание! Время в таблицах - всемирное. Для получения местного времени необходимо прибавить поправку, которая равна 3 ч.

Смотрите также архив погоды в соседних городах и на ближайших метеорологических станциях:

Погода в Имеретинке (Краснодарский край, Россия) (5 км)
Погода в Сочи (Краснодарский край, Россия) (20 км)
Погода в Кепше (Краснодарский край, Россия) (24 км)
Погода в Красной Поляне (Краснодарский край, Россия) (37 км)
Погода в Горная Карусель 1500 (Краснодарский край, Россия) (40 км)
Погода в Горная Карусель 1000 (Краснодарский край, Россия) (40 км)
Погода на Кордоне Лаура (Краснодарский край, Россия) (44 км)
Погода в Солох Ауле (Краснодарский край, Россия) (47 км)
Погода в Кичмае (Краснодарский край, Россия) (54 км)
Погода в Гузерипле (Адыгея, Россия) (66 км)

Пояснения к столбцам:

Ветер - указаны скорость ветра в м/с - средняя за 10 мин, порывы в срок и между сроками (в фигурных скобках) и направление, откуда дует ветер: С - северный, СВ - северо-восточный, В - восточный, ЮВ - юго-восточный, Ю - южный, ЮЗ - юго-западный, З - западный, СЗ - северо-западный.
Видимость - горизонтальная дальность видимости в метрах или километрах. При видимости от 1 до 10 км при отсутствии осадков обычно наблюдается дымка, при ухудшении видимости до 1 км и менее - туман. В сухую погоду видимость может ухудшаться дымом, пылью или мглою.
Явления - указаны атмосферные явления, наблюдавшиеся в срок или в последний час перед сроком; фигурными скобками обозначены явления, наблюдавшиеся между сроками (за 1-3 часа до срока); квадратными скобками обозначены град или гололедные отложения с указанием их диаметра в мм.
Облачность - указаны через наклонную черту общая и нижняя облачность в баллах и высота нижней границы облаков в метрах; квадратными скобками обозначены формы облаков: Ci - перистые, Cs - перисто-слоистые, Cc - перисто-кучевые, Ac - высококучевые, As - высокослоистые, Sc - слоисто-кучевые, Ns - слоисто-дождевые, Cu - кучевые, Cb - кучево-дождевые. Подробнее классификацию облаков см. в Атласе облаков (PDF).
T - Температура воздуха - температура, измеренная на высоте 2 м над землей.
Td - Температура точки росы - температура, при понижении до которой содержащийся в воздухе водяной пар достигнет насыщения.
f - Относительная влажность воздуха - влажноcть воздуха, измеренная на высоте 2 м над землей.
Te - Эффективная температура - температура, которую ощущает одетый по сезону человек в тени. Характеристика душности погоды. При расчете учитывается влияние влажности воздуха и скорости ветра на теплоощущения человека.
Tes - Эффективная температура на солнце - температура, которую ощущает человек, с поправкой на солнечный нагрев. Характеристика знойности погоды. Зависит от высоты солнца над горизонтом, облачности и скорости ветра. Ночью, в пасмурную погоду, а также при ветре 12 м/с и более поправка равна нулю.
P - Атмосферное давление - приведенное к уровню моря атмосферное давление.
Po - Атмосферное давление - измеренное на уровне метеостанции атмосферное давление.
Tmin - Минимальная температура - минимум температуры воздуха на высоте 2 м над землей.
Tmax - Максимальная температура - максимум температуры воздуха на высоте 2 м над землей.
R - Количество осадков - Количество выпавших осадков за период времени, мм. При наведении курсора мыши на число - период времени, за который выпало указанное количество осадков.
R24 - Количество осадков - Количество выпавших осадков за 24 часа, мм.
S - Снежный покров - Высота снежного покрова, см. При наведении курсора мыши на число - состояние снежного покрова и степень покрытия местности в баллах.